Waarnemingen

Advertentie
Mijn weer
Bari Palese, Italië (16270): temperatuur & dauwpunt: 15.07.2018 10:00:00 - 21.07.2018 10:00:00 (CEST)Bari Palese, Italië (16270): windsnelheid: 15.07.2018 10:00:00 - 21.07.2018 10:00:00 (CEST)Bari Palese, Italië (16270): windrichting: 15.07.2018 10:00:00 - 21.07.2018 10:00:00 (CEST)Bari Palese, Italië (16270): luchtdruk: 15.07.2018 10:00:00 - 21.07.2018 10:00:00 (CEST)Bari Palese, Italië (16270): zicht: 15.07.2018 10:00:00 - 21.07.2018 10:00:00 (CEST)Bari Palese, Italië (16270): neerslag: 15.07.2018 10:00:00 - 21.07.2018 10:00:00 (CEST)
Datum & Tijd tt [°C] td [°C] ff [km/u] ff [kn] dd ppp [hPa] vv [km] rr [mm]
21.07.2018 10:00:00 - - - - - - - -
21.07.2018 09:00:00 - - - - - - - -
21.07.2018 08:00:00 28,8 14,4 5 3 W 1012,7 20 0,0
21.07.2018 07:00:00 - - - - - - - -
21.07.2018 06:00:00 - - - - - - - -
21.07.2018 05:00:00 21,1 12,4 13 7 ZW 1012,2 20 -
21.07.2018 04:00:00 - - - - - - - -
21.07.2018 03:00:00 - - - - - - - -
21.07.2018 02:00:00 22,0 8,5 13 7 ZW 1012,5 20 0,0
21.07.2018 01:00:00 - - - - - - - -
21.07.2018 00:00:00 - - - - - - - -
20.07.2018 23:00:00 24,0 8,2 11 6 ZW 1012,9 20 -
20.07.2018 22:00:00 - - - - - - - -
20.07.2018 21:00:00 - - - - - - - -
20.07.2018 20:00:00 27,6 6,3 2 1 Z 1012,0 20 0,0
20.07.2018 19:00:00 - - - - - - - -
20.07.2018 18:00:00 - - - - - - - -
20.07.2018 17:00:00 30,8 7,0 8 4 NNO 1012,8 20 -
20.07.2018 16:00:00 - - - - - - - -
20.07.2018 15:00:00 - - - - - - - -
20.07.2018 14:00:00 30,6 11,7 11 6 N 1013,4 20 0,0
20.07.2018 13:00:00 - - - - - - - -
20.07.2018 12:00:00 - - - - - - - -
20.07.2018 11:00:00 28,6 16,8 15 8 NNO 1013,9 20 -
20.07.2018 10:00:00 - - - - - - - -
20.07.2018 09:00:00 - - - - - - - -
20.07.2018 08:00:00 26,5 19,6 15 8 NNW 1012,7 20 0,0
20.07.2018 07:00:00 - - - - - - - -
20.07.2018 06:00:00 - - - - - - - -
20.07.2018 05:00:00 20,9 13,8 11 6 WNW 1012,6 20 -
20.07.2018 04:00:00 - - - - - - - -
20.07.2018 03:00:00 - - - - - - - -
20.07.2018 02:00:00 20,5 10,9 8 4 WZW 1012,8 20 0,0
20.07.2018 01:00:00 - - - - - - - -
20.07.2018 00:00:00 - - - - - - - -
19.07.2018 23:00:00 23,7 11,9 8 4 WZW 1012,6 20 -
19.07.2018 22:00:00 - - - - - - - -
19.07.2018 21:00:00 - - - - - - - -
19.07.2018 20:00:00 27,7 14,2 5 3 NW 1011,9 20 0,0
19.07.2018 19:00:00 - - - - - - - -
19.07.2018 18:00:00 - - - - - - - -
19.07.2018 17:00:00 28,4 15,5 11 6 NO 1012,6 20 -
19.07.2018 16:00:00 - - - - - - - -
19.07.2018 15:00:00 - - - - - - - -
19.07.2018 14:00:00 30,0 11,6 16 9 NNO 1012,9 20 0,0
19.07.2018 13:00:00 - - - - - - - -
19.07.2018 12:00:00 - - - - - - - -
19.07.2018 11:00:00 29,5 11,3 18 10 N 1013,2 20 -
19.07.2018 10:00:00 - - - - - - - -
19.07.2018 09:00:00 - - - - - - - -
19.07.2018 08:00:00 27,6 13,5 13 7 NW 1012,7 18 0,0
19.07.2018 07:00:00 - - - - - - - -
19.07.2018 06:00:00 - - - - - - - -
19.07.2018 05:00:00 19,5 12,4 5 3 WZW 1012,6 18 -
19.07.2018 04:00:00 - - - - - - - -
19.07.2018 03:00:00 - - - - - - - -
19.07.2018 02:00:00 22,3 9,1 13 7 W 1012,8 20 0,0
19.07.2018 01:00:00 - - - - - - - -
19.07.2018 00:00:00 - - - - - - - -
18.07.2018 23:00:00 20,9 16,4 8 4 WZW 1012,9 20 -
18.07.2018 22:00:00 - - - - - - - -
18.07.2018 21:00:00 - - - - - - - -
18.07.2018 20:00:00 26,2 18,8 9 5 N 1012,6 20 0,0
18.07.2018 19:00:00 - - - - - - - -
18.07.2018 18:00:00 - - - - - - - -
18.07.2018 17:00:00 28,0 17,7 21 11 N 1012,9 20 -
18.07.2018 16:00:00 - - - - - - - -
18.07.2018 15:00:00 - - - - - - - -
18.07.2018 14:00:00 27,6 18,0 26 14 N 1013,5 20 0,0
18.07.2018 13:00:00 - - - - - - - -
18.07.2018 12:00:00 - - - - - - - -
18.07.2018 11:00:00 27,4 17,0 24 13 NNW 1012,8 20 -
18.07.2018 10:00:00 - - - - - - - -
18.07.2018 09:00:00 - - - - - - - -
18.07.2018 08:00:00 25,0 17,7 21 11 NW 1012,5 20 0,0
18.07.2018 07:00:00 - - - - - - - -
18.07.2018 06:00:00 - - - - - - - -
18.07.2018 05:00:00 - - - - - - - -
18.07.2018 04:00:00 - - - - - - - -
18.07.2018 03:00:00 - - - - - - - -
18.07.2018 02:00:00 22,2 18,1 18 10 WNW 1012,0 20 0,0
18.07.2018 01:00:00 - - - - - - - -
18.07.2018 00:00:00 - - - - - - - -
17.07.2018 23:00:00 22,9 18,0 15 8 WNW 1011,9 20 -
17.07.2018 22:00:00 - - - - - - - -
17.07.2018 21:00:00 - - - - - - - -
17.07.2018 20:00:00 24,0 17,9 11 6 NNW 1010,9 22 0,0
17.07.2018 19:00:00 - - - - - - - -
17.07.2018 18:00:00 - - - - - - - -
17.07.2018 17:00:00 24,2 18,0 22 12 N 1010,8 18 -
17.07.2018 16:00:00 - - - - - - - -
17.07.2018 15:00:00 - - - - - - - -
17.07.2018 14:00:00 24,4 18,0 18 10 N 1010,3 20 0,0
17.07.2018 13:00:00 - - - - - - - -
17.07.2018 12:00:00 - - - - - - - -
17.07.2018 11:00:00 25,3 19,5 8 4 NNO 1009,3 20 -
17.07.2018 10:00:00 - - - - - - - -
17.07.2018 09:00:00 - - - - - - - -
17.07.2018 08:00:00 24,3 20,1 8 4 O 1009,6 20 0,0
17.07.2018 07:00:00 - - - - - - - -
17.07.2018 06:00:00 - - - - - - - -
17.07.2018 05:00:00 23,5 19,5 18 10 NNO 1010,7 20 -
17.07.2018 04:00:00 - - - - - - - -
17.07.2018 03:00:00 - - - - - - - -
17.07.2018 02:00:00 27,4 11,5 11 6 WNW 1009,2 20 0,0
17.07.2018 01:00:00 - - - - - - - -
17.07.2018 00:00:00 - - - - - - - -
16.07.2018 23:00:00 30,1 10,5 11 6 W 1009,2 20 -
16.07.2018 22:00:00 - - - - - - - -
16.07.2018 21:00:00 - - - - - - - -
16.07.2018 20:00:00 32,3 12,7 15 8 W 1010,8 20 0,0
16.07.2018 19:00:00 - - - - - - - -
16.07.2018 18:00:00 - - - - - - - -
16.07.2018 17:00:00 - - - - - - - -
16.07.2018 16:00:00 - - - - - - - -
16.07.2018 15:00:00 - - - - - - - -
16.07.2018 14:00:00 29,9 18,4 16 9 ONO 1012,4 20 0,0
16.07.2018 13:00:00 - - - - - - - -
16.07.2018 12:00:00 - - - - - - - -
16.07.2018 11:00:00 31,1 17,0 4 2 W 1013,0 20 -
16.07.2018 10:00:00 - - - - - - - -
16.07.2018 09:00:00 - - - - - - - -
16.07.2018 08:00:00 29,2 15,6 2 1 ZO 1012,6 20 0,0
16.07.2018 07:00:00 - - - - - - - -
16.07.2018 06:00:00 - - - - - - - -
16.07.2018 05:00:00 21,1 14,2 4 2 ZZW 1012,3 20 -
16.07.2018 04:00:00 - - - - - - - -
16.07.2018 03:00:00 - - - - - - - -
16.07.2018 02:00:00 21,7 16,2 9 5 W 1013,5 20 0,0
16.07.2018 01:00:00 - - - - - - - -
16.07.2018 00:00:00 - - - - - - - -
15.07.2018 23:00:00 23,5 21,2 4 2 W 1013,3 20 -
15.07.2018 22:00:00 - - - - - - - -
15.07.2018 21:00:00 - - - - - - - -
15.07.2018 20:00:00 26,3 20,2 4 2 ZZO 1012,3 20 0,0
15.07.2018 19:00:00 - - - - - - - -
15.07.2018 18:00:00 - - - - - - - -
15.07.2018 17:00:00 28,6 18,4 21 11 O 1012,0 20 -
15.07.2018 16:00:00 - - - - - - - -
15.07.2018 15:00:00 - - - - - - - -
15.07.2018 14:00:00 29,8 17,4 21 11 O 1012,8 20 0,0
15.07.2018 13:00:00 - - - - - - - -
15.07.2018 12:00:00 - - - - - - - -
15.07.2018 11:00:00 30,1 11,0 13 7 O 1013,1 20 -
15.07.2018 10:00:00 - - - - - - - -

tt = temperatuur
td = dauwpunt
ff = windsnelheid
dd = windrichting
ppp = luchtdruk
vv = zicht
rr = neerslag

Weerstations in de omgeving